Location: Unspecified
(0.0000°N, 0.0000°E)
Time: 23:41:31
(UTC+00:00)

Vanguard 1 Rocket - Visible Passes

Search period start: 02 September 2014 00:00
Search period end: 12 September 2014 00:00
Orbit: 652 x 4228 km, 34.3° (Epoch: 01 September)

Date Brightness Start Highest point End Pass type
(mag) Time Alt. Az. Time Alt. Az. Time Alt. Az.
02 Sep 11.2 18:30:06 10° NNW 18:49:26 31° NNE 19:07:41 14° ENE visible
02 Sep 10.3 20:59:36 10° NW 21:25:00 67° NNE 21:25:00 67° NNE visible
02 Sep 11.4 23:34:03 10° WNW 23:42:19 25° WNW 23:42:19 25° WNW visible
03 Sep 10.6 19:46:14 10° NW 20:10:17 50° NE 20:18:11 42° ENE visible
03 Sep 10.7 22:17:46 10° WNW 22:35:30 52° WNW 22:35:30 52° WNW visible
04 Sep 11.1 18:33:47 10° NNW 18:54:12 37° NNE 19:11:26 18° E visible
04 Sep 10.3 21:03:05 10° NW 21:28:46 79° NNE 21:28:46 79° NNE visible
04 Sep 11.5 23:38:45 10° WNW 23:46:07 22° W 23:46:07 22° W visible
05 Sep 10.4 19:49:42 10° NW 20:14:17 60° NE 20:22:07 49° E visible
05 Sep 10.8 22:21:47 10° WNW 22:39:28 50° W 22:39:28 50° W visible
06 Sep 10.9 18:37:20 10° NNW 18:58:33 44° NE 19:15:34 22° E visible
06 Sep 10.3 21:06:45 10° NW 21:32:55 88° W 21:32:55 88° W visible
06 Sep 11.5 23:43:58 10° W 23:50:16 20° W 23:50:16 20° W visible
07 Sep 10.4 19:53:12 10° NW 20:18:03 71° NE 20:26:27 53° E visible
07 Sep 10.9 22:26:09 10° WNW 22:43:48 45° W 22:43:48 45° W visible
08 Sep 10.8 18:40:50 10° NW 19:02:34 52° NE 19:20:04 24° E visible
08 Sep 10.3 21:10:37 10° WNW 21:36:49 76° SW 21:37:26 76° SSW visible
08 Sep 11.6 23:49:47 10° W 23:54:49 17° W 23:54:49 17° W visible
09 Sep 10.4 19:56:50 10° NW 20:21:39 83° NE 20:31:09 53° ESE visible
09 Sep 11.0 22:30:56 10° WNW 22:48:32 40° WSW 22:48:32 40° WSW visible
10 Sep 10.6 18:44:23 10° NW 19:06:20 62° NE 19:24:57 25° ESE visible
10 Sep 10.5 21:14:47 10° WNW 21:40:23 64° SW 21:42:21 63° SSW visible
10 Sep 11.7 23:56:16 10° W 23:59:45 14° WSW 23:59:45 14° WSW visible
11 Sep 10.5 20:00:39 10° NW 20:25:11 85° SW 20:36:15 48° SE visible
11 Sep 11.1 22:36:14 10° W 22:53:39 35° WSW 22:53:39 35° WSW visible
